| time (UTC) | temp F | wind direction | speed knots | gust knots | rain 1hr in | rain 24hr in | rain mn in | humidity % | barometer mb |
| 20260901084225 | 57 | 340 | 0.0 | 0.0 | 0.00 | 0.00 | 0.00 | 88 | 1009.9 |
| 20260901083732 | 57 | 340 | 0.0 | 0.0 | 0.00 | 0.00 | 0.00 | 88 | 1010.0 |
| 20260901083259 | 57 | 340 | 0.0 | 0.0 | 0.00 | 0.00 | 0.00 | 88 | 1009.9 |
| 20260901082738 | 57 | 340 | 0.0 | 0.0 | 0.00 | 0.00 | 0.00 | 88 | 1009.9 |
| 20260901082226 | 57 | 340 | 0.0 | 0.0 | 0.00 | 0.00 | 0.00 | 88 | 1009.8 |
| 20260901081733 | 57 | 340 | 0.0 | 0.0 | 0.00 | 0.00 | 0.00 | 87 | 1009.9 |
| 20260901081239 | 57 | 340 | 0.0 | 0.0 | 0.00 | 0.00 | 0.00 | 87 | 1009.8 |
| 20260901080726 | 57 | 340 | 0.0 | 0.0 | 0.00 | 0.00 | 0.00 | 87 | 1009.8 |
| 20260901080254 | 57 | 340 | 0.0 | 0.0 | 0.00 | 0.00 | 0.00 | 86 | 1009.7 |
| 20260901075729 | 58 | 340 | 0.0 | 0.0 | 0.00 | 0.00 | 0.00 | 85 | 1009.7 |
| 20260901075232 | 58 | 340 | 0.0 | 0.0 | 0.00 | 0.00 | 0.00 | 85 | 1009.7 |
| 20260901074759 | 58 | 340 | 0.0 | 0.0 | 0.00 | 0.00 | 0.00 | 85 | 1009.7 |
| 20260901074234 | 58 | 340 | 0.0 | 0.0 | 0.00 | 0.00 | 0.00 | 85 | 1009.8 |
| 20260901073721 | 58 | 340 | 0.0 | 0.0 | 0.00 | 0.00 | 0.00 | 85 | 1009.7 |
| 20260901073228 | 58 | 340 | 0.0 | 0.0 | 0.00 | 0.00 | 0.00 | 84 | 1009.7 |
| 20260901072739 | 58 | 340 | 0.0 | 0.0 | 0.00 | 0.00 | 0.00 | 84 | 1009.7 |
| 20260901072227 | 59 | 340 | 0.0 | 0.0 | 0.00 | 0.00 | 0.00 | 84 | 1009.6 |
| 20260901071733 | 59 | 340 | 0.0 | 0.0 | 0.00 | 0.00 | 0.00 | 84 | 1009.7 |
| 20260901071220 | 59 | 340 | 0.0 | 0.0 | 0.00 | 0.00 | 0.00 | 83 | 1009.7 |
| 20260901070727 | 59 | 340 | 0.0 | 0.9 | 0.00 | 0.00 | 0.00 | 83 | 1009.8 |
| 20260901070254 | 60 | 340 | 0.9 | 0.9 | 0.00 | 0.00 | 0.00 | 82 | 1009.7 |
| 20260901065810 | 60 | 271 | 0.0 | 0.0 | 0.00 | 0.00 | 0.00 | 82 | 1009.7 |
| 20260901065226 | 60 | 271 | 0.0 | 0.0 | 0.00 | 0.00 | 0.00 | 82 | 1009.8 |
| 20260901064732 | 60 | 271 | 0.0 | 0.0 | 0.00 | 0.00 | 0.00 | 81 | 1009.7 |
| 20260901064239 | 60 | 271 | 0.0 | 0.0 | 0.00 | 0.00 | 0.00 | 81 | 1009.7 |
| 20260901063726 | 61 | 271 | 0.0 | 0.0 | 0.00 | 0.00 | 0.00 | 80 | 1009.7 |
| 20260901063233 | 61 | 271 | 0.0 | 0.0 | 0.00 | 0.00 | 0.00 | 80 | 1009.7 |
| 20260901062724 | 61 | 271 | 0.0 | 0.0 | 0.00 | 0.00 | 0.00 | 79 | 1009.8 |
| 20260901062253 | 62 | 271 | 0.0 | 0.0 | 0.00 | 0.00 | 0.00 | 79 | 1009.8 |
| 20260901061727 | 62 | 271 | 0.0 | 0.0 | 0.00 | 0.00 | 0.00 | 78 | 1010.0 |
| 20260901061234 | 62 | 271 | 0.0 | 0.0 | 0.00 | 0.00 | 0.00 | 75 | 1010.0 |
| 20260901060721 | 62 | 271 | 0.0 | 0.0 | 0.00 | 0.00 | 0.00 | 75 | 1010.0 |
| 20260901060228 | 62 | 271 | 0.0 | 0.0 | 0.00 | 0.00 | 0.00 | 75 | 1009.9 |
| 20260901055755 | 63 | 271 | 0.0 | 0.0 | 0.00 | 0.00 | 0.00 | 75 | 1009.9 |
| 20260901055723 | 63 | 271 | 0.0 | 0.0 | 0.00 | 0.00 | 0.00 | 75 | 1009.9 |
| 20260901055231 | 63 | 271 | 0.0 | 0.0 | 0.00 | 0.00 | 0.00 | 75 | 1009.8 |
| 20260901054757 | 63 | 271 | 0.0 | 0.0 | 0.00 | 0.00 | 0.00 | 75 | 1009.9 |
| 20260901054725 | 63 | 271 | 0.0 | 0.0 | 0.00 | 0.00 | 0.00 | 75 | 1009.9 |
| 20260901054252 | 63 | 271 | 0.0 | 0.0 | 0.00 | 0.00 | 0.00 | 75 | 1009.9 |
| 20260901054220 | 63 | 271 | 0.0 | 0.0 | 0.00 | 0.00 | 0.00 | 75 | 1009.9 |
| 20260901053727 | 63 | 271 | 0.0 | 0.0 | 0.00 | 0.00 | 0.00 | 75 | 1010.0 |
| 20260901053234 | 64 | 271 | 0.0 | 1.7 | 0.00 | 0.00 | 0.00 | 75 | 1009.9 |
| 20260901052801 | 64 | 271 | 0.9 | 1.7 | 0.00 | 0.00 | 0.00 | 74 | 1009.9 |
| 20260901052729 | 64 | 271 | 0.9 | 1.7 | 0.00 | 0.00 | 0.00 | 74 | 1009.9 |
| 20260901052237 | 64 | 304 | 0.0 | 0.0 | 0.00 | 0.00 | 0.00 | 74 | 1010.0 |
| 20260901051803 | 64 | 304 | 0.0 | 1.7 | 0.00 | 0.00 | 0.00 | 74 | 1010.1 |
| 20260901051239 | 64 | 304 | 0.0 | 1.7 | 0.00 | 0.00 | 0.00 | 74 | 1010.0 |
| 20260901050806 | 64 | 304 | 0.0 | 0.9 | 0.00 | 0.00 | 0.00 | 74 | 1010.0 |
| 20260901050225 | 64 | 304 | 0.0 | 0.0 | 0.00 | 0.00 | 0.00 | 74 | 1009.9 |
| 20260901045732 | 65 | 304 | 0.0 | 0.9 | 0.00 | 0.00 | 0.00 | 73 | 1009.9 |
| 20260901045240 | 65 | 304 | 0.0 | 1.7 | 0.00 | 0.00 | 0.00 | 73 | 1010.0 |
| 20260901044727 | 65 | 309 | 0.0 | 1.7 | 0.00 | 0.00 | 0.00 | 72 | 1010.0 |
| 20260901044253 | 65 | 321 | 0.0 | 1.7 | 0.00 | 0.00 | 0.00 | 72 | 1010.0 |
| 20260901043728 | 65 | 321 | 0.0 | 1.7 | 0.00 | 0.00 | 0.00 | 72 | 1010.0 |
| 20260901043235 | 65 | 329 | 0.0 | 1.7 | 0.00 | 0.00 | 0.00 | 72 | 1010.0 |
| 20260901042723 | 65 | 315 | 0.9 | 1.7 | 0.00 | 0.00 | 0.00 | 71 | 1010.0 |
| 20260901042230 | 65 | 310 | 0.0 | 2.6 | 0.00 | 0.00 | 0.00 | 71 | 1010.0 |
| 20260901041755 | 66 | 296 | 0.9 | 2.6 | 0.00 | 0.00 | 0.00 | 71 | 1010.0 |
| 20260901041311 | 66 | 302 | 0.0 | 1.7 | 0.00 | 0.00 | 0.00 | 71 | 1010.0 |
| 20260901040726 | 66 | 290 | 0.0 | 1.7 | 0.00 | 0.00 | 0.00 | 71 | 1009.9 |
| 20260901040233 | 66 | 290 | 0.0 | 1.7 | 0.00 | 0.00 | 0.00 | 71 | 1009.9 |
| 20260901035724 | 66 | 305 | 0.0 | 1.7 | 0.00 | 0.00 | 0.00 | 71 | 1009.9 |
| 20260901035253 | 66 | 310 | 0.0 | 1.7 | 0.00 | 0.00 | 0.00 | 70 | 1009.9 |
| 20260901034727 | 66 | 310 | 0.0 | 1.7 | 0.00 | 0.00 | 0.00 | 70 | 1010.0 |
| 20260901034255 | 66 | 302 | 0.0 | 1.7 | 0.00 | 0.00 | 0.00 | 70 | 1009.9 |
| 20260901033730 | 66 | 283 | 0.0 | 2.6 | 0.00 | 0.00 | 0.00 | 69 | 1009.8 |
| 20260901033237 | 66 | 307 | 0.0 | 2.6 | 0.00 | 0.00 | 0.00 | 69 | 1009.8 |
| 20260901032805 | 66 | 299 | 0.0 | 1.7 | 0.00 | 0.00 | 0.00 | 68 | 1009.6 |
| 20260901032221 | 67 | 300 | 0.0 | 1.7 | 0.00 | 0.00 | 0.00 | 68 | 1009.7 |
| 20260901031727 | 67 | 310 | 0.0 | 1.7 | 0.00 | 0.00 | 0.00 | 67 | 1009.7 |
| 20260901031234 | 67 | 327 | 0.9 | 1.7 | 0.00 | 0.00 | 0.00 | 67 | 1009.7 |
| 20260901030721 | 67 | 281 | 0.9 | 1.7 | 0.00 | 0.00 | 0.00 | 67 | 1009.5 |
| 20260901030228 | 68 | 297 | 0.0 | 2.6 | 0.00 | 0.00 | 0.00 | 66 | 1009.5 |
| 20260901025735 | 68 | 297 | 0.0 | 2.6 | 0.00 | 0.00 | 0.00 | 66 | 1009.6 |
| 20260901025228 | 68 | 302 | 0.0 | 1.7 | 0.00 | 0.00 | 0.00 | 65 | 1009.5 |
| 20260901024734 | 68 | 296 | 0.0 | 0.9 | 0.00 | 0.00 | 0.00 | 65 | 1009.6 |
| 20260901024221 | 68 | 308 | 0.0 | 0.0 | 0.00 | 0.00 | 0.00 | 65 | 1009.7 |
| 20260901023728 | 68 | 310 | 0.0 | 0.0 | 0.00 | 0.00 | 0.00 | 64 | 1009.7 |
| 20260901023235 | 68 | 310 | 0.0 | 0.0 | 0.00 | 0.00 | 0.00 | 64 | 1009.7 |
| 20260901022722 | 69 | 265 | 0.0 | 0.9 | 0.00 | 0.00 | 0.00 | 64 | 1009.7 |
| 20260901022230 | 69 | 265 | 0.0 | 0.9 | 0.00 | 0.00 | 0.00 | 63 | 1009.7 |
| 20260901021757 | 69 | 292 | 0.0 | 0.0 | 0.00 | 0.00 | 0.00 | 62 | 1009.7 |
| 20260901021232 | 69 | 292 | 0.0 | 1.7 | 0.00 | 0.00 | 0.00 | 62 | 1009.7 |
| 20260901020739 | 69 | 264 | 0.0 | 1.7 | 0.00 | 0.00 | 0.00 | 61 | 1009.7 |
| 20260901020226 | 70 | 261 | 0.0 | 1.7 | 0.00 | 0.00 | 0.00 | 61 | 1009.7 |
| 20260901015737 | 70 | 291 | 0.0 | 3.5 | 0.00 | 0.00 | 0.00 | 60 | 1009.7 |
| 20260901015225 | 70 | 336 | 1.7 | 3.5 | 0.00 | 0.00 | 0.00 | 59 | 1009.7 |
| 20260901014731 | 71 | 243 | 0.9 | 2.6 | 0.00 | 0.00 | 0.00 | 59 | 1009.7 |
| 20260901014237 | 71 | 301 | 0.9 | 4.3 | 0.00 | 0.00 | 0.00 | 58 | 1009.7 |
| 20260901013724 | 72 | 259 | 0.9 | 4.3 | 0.00 | 0.00 | 0.00 | 58 | 1009.7 |
| 20260901013309 | 72 | 319 | 0.0 | 1.7 | 0.00 | 0.00 | 0.00 | 58 | 1009.7 |
| 20260901013237 | 72 | 319 | 0.0 | 1.7 | 0.00 | 0.00 | 0.00 | 58 | 1009.7 |
| 20260901012805 | 72 | 311 | 0.0 | 2.6 | 0.00 | 0.00 | 0.00 | 57 | 1009.8 |
| 20260901012221 | 73 | 300 | 0.9 | 2.6 | 0.00 | 0.00 | 0.00 | 56 | 1009.7 |
| 20260901011727 | 73 | 278 | 0.9 | 2.6 | 0.00 | 0.00 | 0.00 | 56 | 1009.8 |
| 20260901011234 | 73 | 302 | 0.9 | 2.6 | 0.00 | 0.00 | 0.00 | 56 | 1009.8 |
| 20260901010721 | 74 | 350 | 1.7 | 6.1 | 0.00 | 0.00 | 0.00 | 55 | 1009.9 |
| 20260901010227 | 74 | 252 | 1.7 | 6.1 | 0.00 | 0.00 | 0.00 | 54 | 1009.9 |
| 20260901005738 | 75 | 338 | 1.7 | 4.3 | 0.00 | 0.00 | 0.00 | 53 | 1009.8 |
| 20260901005227 | 75 | 275 | 0.0 | 2.6 | 0.00 | 0.00 | 0.00 | 53 | 1009.8 |
| 20260901004732 | 75 | 306 | 0.9 | 4.3 | 0.00 | 0.00 | 0.00 | 53 | 1009.8 |
| 20260901004239 | 75 | 30 | 1.7 | 6.1 | 0.00 | 0.00 | 0.00 | 53 | 1009.7 |
| 20260901003806 | 75 | 342 | 1.7 | 5.2 | 0.00 | 0.00 | 0.00 | 52 | 1009.8 |
| 20260901003734 | 75 | 342 | 1.7 | 5.2 | 0.00 | 0.00 | 0.00 | 52 | 1009.8 |
| 20260901003221 | 75 | 331 | 2.6 | 6.1 | 0.00 | 0.00 | 0.00 | 52 | 1009.9 |
| 20260901002728 | 76 | 285 | 2.6 | 6.1 | 0.00 | 0.00 | 0.00 | 51 | 1009.9 |
| 20260901002256 | 76 | 244 | 1.7 | 7.0 | 0.00 | 0.00 | 0.00 | 51 | 1010.0 |
| 20260901002224 | 76 | 244 | 1.7 | 7.0 | 0.00 | 0.00 | 0.00 | 51 | 1010.0 |
| 20260901001810 | 76 | 342 | 3.5 | 7.0 | 0.00 | 0.00 | 0.00 | 50 | 1010.0 |
| 20260901001225 | 76 | 326 | 1.7 | 7.0 | 0.00 | 0.00 | 0.00 | 51 | 1010.1 |
| 20260901000732 | 76 | 292 | 1.7 | 7.0 | 0.00 | 0.00 | 0.00 | 50 | 1010.1 |
| 20260901000241 | 76 | 284 | 3.5 | 7.0 | 0.00 | 0.00 | 0.00 | 50 | 1010.2 |
| 20260831235726 | 77 | 296 | 2.6 | 6.1 | 0.00 | 0.00 | 0.00 | 49 | 1010.3 |
| 20260831235238 | 77 | 247 | 1.7 | 7.0 | 0.00 | 0.00 | 0.00 | 50 | 1010.3 |
| 20260831234724 | 77 | 324 | 2.6 | 7.0 | 0.00 | 0.00 | 0.00 | 49 | 1010.3 |
| 20260831234231 | 77 | 333 | 2.6 | 4.3 | 0.00 | 0.00 | 0.00 | 49 | 1010.5 |
| 20260831233738 | 77 | 321 | 2.6 | 4.3 | 0.00 | 0.00 | 0.00 | 49 | 1010.5 |
| 20260831233225 | 77 | 28 | 1.7 | 4.3 | 0.00 | 0.00 | 0.00 | 50 | 1010.5 |
| 20260831232732 | 77 | 15 | 1.7 | 6.1 | 0.00 | 0.00 | 0.00 | 50 | 1010.5 |
| 20260831232240 | 77 | 45 | 0.9 | 7.8 | 0.00 | 0.00 | 0.00 | 51 | 1010.5 |
| 20260831231726 | 77 | 9 | 2.6 | 6.1 | 0.00 | 0.00 | 0.00 | 50 | 1010.5 |
| 20260831231233 | 77 | 28 | 1.7 | 4.3 | 0.00 | 0.00 | 0.00 | 51 | 1010.5 |
| 20260831230724 | 76 | 343 | 1.7 | 7.0 | 0.00 | 0.00 | 0.00 | 51 | 1010.6 |
| 20260831230231 | 76 | 339 | 2.6 | 7.0 | 0.00 | 0.00 | 0.00 | 51 | 1010.7 |
| 20260831225758 | 77 | 277 | 1.7 | 7.0 | 0.00 | 0.00 | 0.00 | 50 | 1010.7 |
| 20260831225726 | 77 | 277 | 1.7 | 7.0 | 0.00 | 0.00 | 0.00 | 50 | 1010.7 |
| 20260831225255 | 77 | 297 | 2.6 | 7.0 | 0.00 | 0.00 | 0.00 | 49 | 1010.7 |
| 20260831224729 | 77 | 52 | 1.7 | 8.7 | 0.00 | 0.00 | 0.00 | 49 | 1010.7 |
| 20260831224236 | 78 | 325 | 2.6 | 8.7 | 0.00 | 0.00 | 0.00 | 49 | 1010.8 |
| 20260831223723 | 77 | 292 | 0.9 | 3.5 | 0.00 | 0.00 | 0.00 | 49 | 1010.9 |
| 20260831223230 | 77 | 340 | 0.9 | 6.1 | 0.00 | 0.00 | 0.00 | 51 | 1010.9 |
| 20260831222737 | 76 | 355 | 3.5 | 8.7 | 0.00 | 0.00 | 0.00 | 50 | 1010.9 |
| 20260831222225 | 77 | 9 | 1.7 | 5.2 | 0.00 | 0.00 | 0.00 | 50 | 1011.0 |
| 20260831221731 | 77 | 340 | 0.9 | 4.3 | 0.00 | 0.00 | 0.00 | 50 | 1011.1 |
| 20260831221258 | 76 | 33 | 0.9 | 6.1 | 0.00 | 0.00 | 0.00 | 51 | 1011.1 |
| 20260831221226 | 76 | 33 | 0.9 | 6.1 | 0.00 | 0.00 | 0.00 | 51 | 1011.1 |
| 20260831220753 | 76 | 264 | 2.6 | 8.7 | 0.00 | 0.00 | 0.00 | 51 | 1011.2 |
| 20260831220310 | 76 | 327 | 3.5 | 8.7 | 0.00 | 0.00 | 0.00 | 51 | 1011.3 |
| 20260831220238 | 76 | 327 | 3.5 | 8.7 | 0.00 | 0.00 | 0.00 | 51 | 1011.3 |
| 20260831215805 | 76 | 360 | 1.7 | 9.6 | 0.00 | 0.00 | 0.00 | 52 | 1011.4 |
| 20260831215733 | 76 | 360 | 1.7 | 9.6 | 0.00 | 0.00 | 0.00 | 52 | 1011.4 |
| 20260831215221 | 75 | 47 | 1.7 | 9.6 | 0.00 | 0.00 | 0.00 | 52 | 1011.3 |
| 20260831214728 | 75 | 304 | 1.7 | 4.3 | 0.00 | 0.00 | 0.00 | 52 | 1011.3 |
| 20260831214239 | 75 | 306 | 1.7 | 9.6 | 0.00 | 0.00 | 0.00 | 53 | 1011.5 |
| 20260831213726 | 75 | 339 | 3.5 | 9.6 | 0.00 | 0.00 | 0.00 | 52 | 1011.6 |
| 20260831213253 | 75 | 89 | 1.7 | 7.8 | 0.00 | 0.00 | 0.00 | 52 | 1011.6 |
| 20260831212809 | 75 | 290 | 2.6 | 7.0 | 0.00 | 0.00 | 0.00 | 52 | 1011.8 |
| 20260831212225 | 75 | 360 | 1.7 | 5.2 | 0.00 | 0.00 | 0.00 | 52 | 1011.9 |
| 20260831211811 | 75 | 302 | 1.7 | 7.0 | 0.00 | 0.00 | 0.00 | 53 | 1012.0 |
| 20260831211226 | 74 | 318 | 2.6 | 7.0 | 0.00 | 0.00 | 0.00 | 54 | 1011.9 |
| 20260831210733 | 74 | 331 | 2.6 | 6.1 | 0.00 | 0.00 | 0.00 | 54 | 1012.0 |
| 20260831210220 | 74 | 41 | 3.5 | 7.8 | 0.00 | 0.00 | 0.00 | 55 | 1012.1 |
| 20260831205727 | 74 | 215 | 1.7 | 7.8 | 0.00 | 0.00 | 0.00 | 55 | 1012.1 |
| 20260831205235 | 73 | 270 | 3.5 | 7.0 | 0.00 | 0.00 | 0.00 | 55 | 1012.1 |
| 20260831204721 | 73 | 325 | 2.6 | 8.7 | 0.00 | 0.00 | 0.00 | 55 | 1012.1 |
| 20260831204228 | 73 | 24 | 2.6 | 8.7 | 0.00 | 0.00 | 0.00 | 55 | 1012.2 |
| 20260831203739 | 74 | 40 | 1.7 | 7.0 | 0.00 | 0.00 | 0.00 | 56 | 1012.2 |
| 20260831203226 | 73 | 355 | 2.6 | 7.0 | 0.00 | 0.00 | 0.00 | 56 | 1012.3 |
| 20260831202754 | 73 | 31 | 1.7 | 7.8 | 0.00 | 0.00 | 0.00 | 57 | 1012.3 |
| 20260831202230 | 73 | 339 | 4.3 | 7.8 | 0.00 | 0.00 | 0.00 | 57 | 1012.2 |
| 20260831201736 | 72 | 281 | 2.6 | 7.0 | 0.00 | 0.00 | 0.00 | 57 | 1012.4 |
| 20260831201303 | 72 | 26 | 1.7 | 8.7 | 0.00 | 0.00 | 0.00 | 57 | 1012.5 |
| 20260831200738 | 72 | 300 | 2.6 | 8.7 | 0.00 | 0.00 | 0.00 | 57 | 1012.6 |
| 20260831200225 | 72 | 303 | 1.7 | 4.3 | 0.00 | 0.00 | 0.00 | 58 | 1012.7 |
| 20260831195732 | 72 | 323 | 2.6 | 8.7 | 0.00 | 0.00 | 0.00 | 57 | 1012.7 |
| 20260831195239 | 72 | 307 | 2.6 | 8.7 | 0.00 | 0.00 | 0.00 | 58 | 1012.8 |
| 20260831194725 | 71 | 23 | 3.5 | 8.7 | 0.00 | 0.00 | 0.00 | 57 | 1012.8 |
| 20260831194232 | 71 | 246 | 1.7 | 6.1 | 0.00 | 0.00 | 0.00 | 58 | 1012.8 |
| 20260831193723 | 71 | 229 | 1.7 | 7.0 | 0.00 | 0.00 | 0.00 | 58 | 1012.8 |
| 20260831193230 | 71 | 240 | 2.6 | 7.0 | 0.00 | 0.00 | 0.00 | 57 | 1012.8 |
| 20260831192732 | 72 | 265 | 2.6 | 7.0 | 0.00 | 0.00 | 0.00 | 57 | 1012.9 |
| 20260831192240 | 71 | 76 | 1.7 | 7.0 | 0.00 | 0.00 | 0.00 | 59 | 1013.0 |
| 20260831191726 | 70 | 250 | 2.6 | 7.0 | 0.00 | 0.00 | 0.00 | 58 | 1013.0 |
| 20260831191233 | 70 | 257 | 2.6 | 7.0 | 0.00 | 0.00 | 0.00 | 60 | 1013.1 |
| 20260831190720 | 70 | 315 | 0.9 | 3.5 | 0.00 | 0.00 | 0.00 | 60 | 1013.2 |
| 20260831190227 | 69 | 333 | 1.7 | 7.8 | 0.00 | 0.00 | 0.00 | 61 | 1013.4 |
| 20260831185734 | 69 | 9 | 0.9 | 7.8 | 0.00 | 0.00 | 0.00 | 61 | 1013.5 |
| 20260831185226 | 69 | 303 | 2.6 | 7.0 | 0.00 | 0.00 | 0.00 | 59 | 1013.4 |
| 20260831184731 | 70 | 311 | 2.6 | 7.0 | 0.00 | 0.00 | 0.00 | 59 | 1013.5 |
| 20260831184259 | 69 | 306 | 1.7 | 6.1 | 0.00 | 0.00 | 0.00 | 61 | 1013.4 |
| 20260831183734 | 69 | 58 | 0.9 | 4.3 | 0.00 | 0.00 | 0.00 | 62 | 1013.5 |
| 20260831183221 | 68 | 9 | 2.6 | 7.0 | 0.00 | 0.00 | 0.00 | 63 | 1013.6 |
| 20260831182809 | 68 | 326 | 2.6 | 6.1 | 0.00 | 0.00 | 0.00 | 63 | 1013.7 |
| 20260831182245 | 68 | 324 | 2.6 | 7.0 | 0.00 | 0.00 | 0.00 | 63 | 1013.9 |
| 20260831181726 | 67 | 21 | 3.5 | 7.0 | 0.00 | 0.00 | 0.00 | 64 | 1013.9 |
| 20260831181233 | 68 | 327 | 2.6 | 5.2 | 0.00 | 0.00 | 0.00 | 63 | 1013.8 |
| 20260831180720 | 67 | 298 | 1.7 | 7.8 | 0.00 | 0.00 | 0.00 | 64 | 1013.8 |
| 20260831180307 | 67 | 281 | 3.5 | 7.8 | 0.00 | 0.00 | 0.00 | 64 | 1014.1 |
| 20260831175722 | 67 | 348 | 0.9 | 6.1 | 0.00 | 0.00 | 0.00 | 66 | 1014.0 |
| 20260831175310 | 66 | 305 | 2.6 | 7.8 | 0.00 | 0.00 | 0.00 | 66 | 1014.1 |
| 20260831174724 | 66 | 313 | 2.6 | 7.8 | 0.00 | 0.00 | 0.00 | 66 | 1014.1 |
| 20260831174231 | 66 | 296 | 0.9 | 8.7 | 0.00 | 0.00 | 0.00 | 68 | 1013.9 |
| 20260831173722 | 66 | 322 | 1.7 | 8.7 | 0.00 | 0.00 | 0.00 | 67 | 1014.0 |
| 20260831173229 | 66 | 252 | 0.9 | 2.6 | 0.00 | 0.00 | 0.00 | 68 | 1014.1 |
| 20260831172736 | 65 | 30 | 1.7 | 4.3 | 0.00 | 0.00 | 0.00 | 69 | 1014.1 |
| 20260831172224 | 65 | 288 | 1.7 | 4.3 | 0.00 | 0.00 | 0.00 | 69 | 1014.1 |
| 20260831171730 | 65 | 23 | 0.9 | 3.5 | 0.00 | 0.00 | 0.00 | 70 | 1014.2 |
| 20260831171237 | 65 | 306 | 1.7 | 3.5 | 0.00 | 0.00 | 0.00 | 68 | 1014.3 |
| 20260831170804 | 65 | 68 | 0.9 | 2.6 | 0.00 | 0.00 | 0.00 | 68 | 1014.4 |
| 20260831170732 | 65 | 68 | 0.9 | 2.6 | 0.00 | 0.00 | 0.00 | 68 | 1014.4 |
| 20260831170239 | 65 | 329 | 0.9 | 2.6 | 0.00 | 0.00 | 0.00 | 67 | 1014.3 |
| 20260831165806 | 65 | 113 | 0.9 | 2.6 | 0.00 | 0.00 | 0.00 | 69 | 1014.4 |
| 20260831165735 | 65 | 113 | 0.9 | 2.6 | 0.00 | 0.00 | 0.00 | 69 | 1014.4 |
| 20260831165258 | 64 | 80 | 0.0 | 2.6 | 0.00 | 0.00 | 0.00 | 69 | 1014.2 |
| 20260831164732 | 63 | 112 | 0.9 | 3.5 | 0.00 | 0.00 | 0.00 | 70 | 1014.3 |
| 20260831164239 | 63 | 46 | 1.7 | 3.5 | 0.00 | 0.00 | 0.00 | 70 | 1014.5 |
| 20260831163726 | 63 | 33 | 0.9 | 3.5 | 0.00 | 0.00 | 0.00 | 71 | 1014.5 |
| 20260831163253 | 63 | 111 | 0.9 | 2.6 | 0.00 | 0.00 | 0.00 | 71 | 1014.5 |
| 20260831162732 | 63 | 34 | 1.7 | 2.6 | 0.00 | 0.00 | 0.00 | 71 | 1014.5 |
| 20260831162235 | 62 | 342 | 0.9 | 2.6 | 0.00 | 0.00 | 0.00 | 72 | 1014.7 |
| 20260831161721 | 62 | 42 | 0.0 | 2.6 | 0.00 | 0.00 | 0.00 | 75 | 1014.7 |
| 20260831161228 | 61 | 51 | 0.0 | 2.6 | 0.00 | 0.00 | 0.00 | 75 | 1014.9 |
| 20260831160736 | 61 | 63 | 0.9 | 2.6 | 0.00 | 0.00 | 0.00 | 76 | 1014.9 |
| 20260831160222 | 60 | 80 | 0.9 | 2.6 | 0.00 | 0.00 | 0.00 | 77 | 1014.9 |
| 20260831155729 | 60 | 35 | 0.9 | 2.6 | 0.00 | 0.00 | 0.00 | 76 | 1014.9 |
| 20260831155237 | 60 | 45 | 0.9 | 2.6 | 0.00 | 0.00 | 0.00 | 77 | 1014.9 |
| 20260831154723 | 59 | 81 | 0.9 | 3.5 | 0.00 | 0.00 | 0.00 | 78 | 1014.8 |
| 20260831154311 | 59 | 323 | 0.9 | 2.6 | 0.00 | 0.00 | 0.00 | 77 | 1014.9 |
| 20260831153726 | 59 | 59 | 0.9 | 1.7 | 0.00 | 0.00 | 0.00 | 78 | 1014.8 |
| 20260831153237 | 58 | 74 | 0.0 | 2.6 | 0.00 | 0.00 | 0.00 | 82 | 1014.9 |
| 20260831152724 | 58 | 89 | 0.9 | 1.7 | 0.00 | 0.00 | 0.00 | 82 | 1015.1 |
| 20260831152232 | 57 | 59 | 0.0 | 0.9 | 0.00 | 0.00 | 0.00 | 84 | 1015.0 |
| 20260831151738 | 57 | 34 | 0.0 | 0.0 | 0.00 | 0.00 | 0.00 | 87 | 1015.0 |
| 20260831151225 | 55 | 34 | 0.0 | 0.0 | 0.00 | 0.00 | 0.00 | 89 | 1015.1 |
| 20260831150732 | 54 | 34 | 0.0 | 0.0 | 0.00 | 0.00 | 0.00 | 91 | 1015.1 |
| 20260831150239 | 53 | 34 | 0.0 | 0.0 | 0.00 | 0.00 | 0.00 | 90 | 1015.1 |
| 20260831145726 | 53 | 34 | 0.0 | 0.0 | 0.00 | 0.00 | 0.00 | 90 | 1015.1 |
| 20260831145234 | 53 | 34 | 0.0 | 0.0 | 0.00 | 0.00 | 0.00 | 91 | 1015.0 |
| 20260831144724 | 52 | 34 | 0.0 | 0.0 | 0.00 | 0.00 | 0.00 | 92 | 1014.9 |
| 20260831144231 | 51 | 34 | 0.0 | 0.0 | 0.00 | 0.00 | 0.00 | 93 | 1014.9 |
| 20260831143738 | 51 | 34 | 0.0 | 0.0 | 0.00 | 0.00 | 0.00 | 93 | 1014.9 |
| 20260831143305 | 50 | 34 | 0.0 | 0.0 | 0.00 | 0.00 | 0.00 | 93 | 1014.9 |
| 20260831143233 | 50 | 34 | 0.0 | 0.0 | 0.00 | 0.00 | 0.00 | 93 | 1014.9 |
| 20260831142721 | 50 | 34 | 0.0 | 0.0 | 0.00 | 0.00 | 0.00 | 93 | 1015.0 |
| 20260831142309 | 50 | 34 | 0.0 | 0.0 | 0.00 | 0.00 | 0.00 | 93 | 1015.0 |
| 20260831141722 | 50 | 349 | 0.0 | 0.0 | 0.00 | 0.00 | 0.00 | 93 | 1014.9 |
| 20260831141229 | 50 | 349 | 0.0 | 0.0 | 0.00 | 0.00 | 0.00 | 93 | 1015.1 |
| 20260831140736 | 50 | 349 | 0.0 | 0.0 | 0.00 | 0.00 | 0.00 | 94 | 1015.1 |
| 20260831140223 | 49 | 349 | 0.0 | 0.0 | 0.00 | 0.00 | 0.00 | 94 | 1015.0 |
| 20260831135730 | 49 | 349 | 0.0 | 0.0 | 0.00 | 0.00 | 0.00 | 93 | 1015.1 |
| 20260831135238 | 49 | 349 | 0.0 | 0.0 | 0.00 | 0.00 | 0.00 | 93 | 1015.0 |
| 20260831134728 | 49 | 349 | 0.0 | 0.0 | 0.00 | 0.00 | 0.00 | 93 | 1015.0 |
| 20260831134234 | 49 | 349 | 0.0 | 0.0 | 0.00 | 0.00 | 0.00 | 93 | 1015.0 |
| 20260831133722 | 49 | 349 | 0.0 | 0.0 | 0.00 | 0.00 | 0.00 | 92 | 1014.9 |
| 20260831133228 | 49 | 349 | 0.0 | 0.0 | 0.00 | 0.00 | 0.00 | 92 | 1014.9 |
| 20260831132735 | 49 | 349 | 0.0 | 0.0 | 0.00 | 0.00 | 0.00 | 92 | 1014.9 |
| 20260831132306 | 49 | 349 | 0.0 | 0.0 | 0.00 | 0.00 | 0.00 | 92 | 1015.0 |
| 20260831131738 | 49 | 349 | 0.0 | 0.0 | 0.00 | 0.00 | 0.00 | 92 | 1014.9 |
| 20260831131225 | 49 | 349 | 0.0 | 0.0 | 0.00 | 0.00 | 0.00 | 92 | 1015.0 |
| 20260831130752 | 50 | 349 | 0.0 | 0.0 | 0.00 | 0.00 | 0.00 | 92 | 1015.0 |
| 20260831130307 | 50 | 349 | 0.0 | 0.0 | 0.00 | 0.00 | 0.00 | 92 | 1015.0 |
| 20260831130235 | 50 | 349 | 0.0 | 0.0 | 0.00 | 0.00 | 0.00 | 92 | 1015.0 |
| 20260831125722 | 50 | 349 | 0.0 | 0.0 | 0.00 | 0.00 | 0.00 | 93 | 1015.0 |
| 20260831125230 | 50 | 349 | 0.0 | 0.0 | 0.00 | 0.00 | 0.00 | 93 | 1015.0 |
| 20260831124736 | 50 | 349 | 0.0 | 0.0 | 0.00 | 0.00 | 0.00 | 93 | 1015.1 |
| 20260831124304 | 50 | 350 | 0.0 | 0.0 | 0.00 | 0.00 | 0.00 | 93 | 1015.0 |
| 20260831123800 | 50 | 349 | 0.0 | 0.0 | 0.00 | 0.00 | 0.00 | 93 | 1015.1 |
| 20260831123255 | 50 | 349 | 0.0 | 0.0 | 0.00 | 0.00 | 0.00 | 92 | 1015.0 |
| 20260831123223 | 50 | 349 | 0.0 | 0.0 | 0.00 | 0.00 | 0.00 | 92 | 1015.0 |
| 20260831122730 | 50 | 349 | 0.0 | 0.0 | 0.00 | 0.00 | 0.00 | 92 | 1015.1 |
| 20260831122222 | 50 | 349 | 0.0 | 0.0 | 0.00 | 0.00 | 0.00 | 92 | 1015.2 |
| 20260831121728 | 50 | 349 | 0.0 | 0.0 | 0.00 | 0.00 | 0.00 | 92 | 1015.1 |
| 20260831121235 | 50 | 349 | 0.0 | 0.0 | 0.00 | 0.00 | 0.00 | 92 | 1015.2 |
| 20260831120722 | 50 | 349 | 0.0 | 0.0 | 0.00 | 0.00 | 0.00 | 92 | 1015.3 |
| 20260831120309 | 50 | 349 | 0.0 | 0.0 | 0.00 | 0.00 | 0.00 | 92 | 1015.4 |
| 20260831120237 | 50 | 349 | 0.0 | 0.0 | 0.00 | 0.00 | 0.00 | 92 | 1015.4 |
| 20260831115725 | 50 | 349 | 0.0 | 0.0 | 0.00 | 0.00 | 0.00 | 92 | 1015.4 |
| 20260831115232 | 50 | 349 | 0.0 | 0.0 | 0.00 | 0.00 | 0.00 | 91 | 1015.5 |
| 20260831114738 | 50 | 349 | 0.0 | 0.0 | 0.00 | 0.00 | 0.00 | 92 | 1015.5 |
| 20260831114225 | 50 | 349 | 0.0 | 0.0 | 0.00 | 0.00 | 0.00 | 92 | 1015.5 |
| 20260831113732 | 50 | 349 | 0.0 | 0.0 | 0.00 | 0.00 | 0.00 | 92 | 1015.6 |
| 20260831113259 | 50 | 349 | 0.0 | 0.0 | 0.00 | 0.00 | 0.00 | 92 | 1015.6 |
| 20260831112735 | 50 | 349 | 0.0 | 0.0 | 0.00 | 0.00 | 0.00 | 91 | 1015.5 |
| 20260831112226 | 51 | 349 | 0.0 | 0.0 | 0.00 | 0.00 | 0.00 | 91 | 1015.8 |
| 20260831111752 | 51 | 349 | 0.0 | 0.0 | 0.00 | 0.00 | 0.00 | 92 | 1015.7 |
| 20260831111720 | 51 | 349 | 0.0 | 0.0 | 0.00 | 0.00 | 0.00 | 92 | 1015.7 |
| 20260831111227 | 51 | 349 | 0.0 | 0.0 | 0.00 | 0.00 | 0.00 | 92 | 1015.9 |
| 20260831110734 | 51 | 349 | 0.0 | 0.0 | 0.00 | 0.00 | 0.00 | 92 | 1015.8 |
| 20260831110221 | 51 | 349 | 0.0 | 0.0 | 0.00 | 0.00 | 0.00 | 92 | 1015.9 |
| 20260831105729 | 51 | 349 | 0.0 | 0.0 | 0.00 | 0.00 | 0.00 | 91 | 1015.9 |
| 20260831105231 | 51 | 349 | 0.0 | 0.0 | 0.00 | 0.00 | 0.00 | 91 | 1016.0 |
| 20260831104737 | 51 | 349 | 0.0 | 0.0 | 0.00 | 0.00 | 0.00 | 91 | 1015.9 |
| 20260831104224 | 51 | 349 | 0.0 | 0.0 | 0.00 | 0.00 | 0.00 | 91 | 1016.0 |
| 20260831103731 | 51 | 349 | 0.0 | 0.0 | 0.00 | 0.00 | 0.00 | 91 | 1016.1 |
| 20260831103222 | 51 | 349 | 0.0 | 0.0 | 0.00 | 0.00 | 0.00 | 91 | 1016.1 |
| 20260831102806 | 51 | 349 | 0.0 | 0.0 | 0.00 | 0.00 | 0.00 | 91 | 1016.2 |
| 20260831102227 | 51 | 349 | 0.0 | 0.0 | 0.00 | 0.00 | 0.00 | 92 | 1016.2 |
| 20260831101733 | 51 | 350 | 0.0 | 0.0 | 0.00 | 0.00 | 0.00 | 91 | 1016.1 |
| 20260831101220 | 51 | 349 | 0.0 | 0.0 | 0.00 | 0.00 | 0.00 | 91 | 1016.1 |
| 20260831100727 | 51 | 349 | 0.0 | 0.0 | 0.00 | 0.00 | 0.00 | 91 | 1016.1 |
| 20260831100234 | 51 | 349 | 0.0 | 0.0 | 0.00 | 0.00 | 0.00 | 91 | 1016.3 |
| 20260831095801 | 51 | 349 | 0.0 | 0.0 | 0.00 | 0.00 | 0.00 | 90 | 1016.2 |
| 20260831095729 | 51 | 349 | 0.0 | 0.0 | 0.00 | 0.00 | 0.00 | 90 | 1016.2 |
| 20260831095237 | 51 | 349 | 0.0 | 0.0 | 0.00 | 0.00 | 0.00 | 90 | 1016.2 |
| 20260831094803 | 51 | 349 | 0.0 | 0.0 | 0.00 | 0.00 | 0.00 | 90 | 1016.3 |
| 20260831094731 | 51 | 349 | 0.0 | 0.0 | 0.00 | 0.00 | 0.00 | 90 | 1016.3 |
| 20260831094238 | 51 | 349 | 0.0 | 0.0 | 0.00 | 0.00 | 0.00 | 90 | 1016.4 |
| 20260831093725 | 52 | 349 | 0.0 | 0.0 | 0.00 | 0.00 | 0.00 | 89 | 1016.4 |
| 20260831093253 | 52 | 349 | 0.0 | 0.0 | 0.00 | 0.00 | 0.00 | 89 | 1016.4 |
| 20260831092728 | 52 | 349 | 0.0 | 0.0 | 0.00 | 0.00 | 0.00 | 89 | 1016.5 |
| 20260831092256 | 52 | 349 | 0.0 | 0.0 | 0.00 | 0.00 | 0.00 | 89 | 1016.6 |
| 20260831092224 | 52 | 349 | 0.0 | 0.0 | 0.00 | 0.00 | 0.00 | 89 | 1016.6 |
| 20260831091730 | 52 | 349 | 0.0 | 0.0 | 0.00 | 0.00 | 0.00 | 89 | 1016.8 |
| 20260831091235 | 52 | 349 | 0.0 | 0.0 | 0.00 | 0.00 | 0.00 | 88 | 1016.6 |
| 20260831090722 | 52 | 349 | 0.0 | 0.0 | 0.00 | 0.00 | 0.00 | 88 | 1016.7 |
| 20260831090229 | 52 | 349 | 0.0 | 0.0 | 0.00 | 0.00 | 0.00 | 88 | 1016.7 |
| 20260831085736 | 53 | 349 | 0.0 | 0.0 | 0.00 | 0.00 | 0.00 | 88 | 1016.8 |
| 20260831085224 | 53 | 350 | 0.0 | 0.0 | 0.00 | 0.00 | 0.00 | 89 | 1016.7 |
| 20260831084730 | 53 | 349 | 0.0 | 0.0 | 0.00 | 0.00 | 0.00 | 88 | 1016.8 |